BEIDOU-3 M16 (C35)

Last updated on Jan. 22, 2021, 6:27 a.m. UTC

1 43648U 18078B   21021.74598258 -.00000084  00000-0  10000-3 0  9990
2 43648  55.2112   8.1442 0005063 344.6531 250.8132  1.86232422 15447
UTC
Height (km)
Latitude
Longitude
Inclination
Orbital Period
UTC large
Height (km)
Speed (km/s)
/
Latitude / Longitude
Inclination (degrees)
Orbital Period (minutes)
Azimuth
Elevation
Range (km)
Doppler Factor
iOS Compass Heading
iOS Angle

Next 30 passes for location: Hong Kong

Rise time Rise Azimuth (degrees) Set time Set Azimuth (degrees) Duration Max altitude (degrees)

No matching passes for this satellites